Regional Weather Roundup
Issued by NWS San Diego, CA

Home | Current Version | Previous Version | Text Only | Print | Product List | Glossary On
Versions: 1 2 3 4 5 6 7 8 9 10 11 12 13 14 15 16 17 18 19 20 21 22 23 24 25 26 27 28 29 30 31 32 33 34 35 36 37 38 39 40 41 42 43 44 45 46 47 48 49 50
000
ASUS46 KSGX 250911
RWRSGX

SAN DIEGO HOURLY WEATHER ROUNDUP
NATIONAL WEATHER SERVICE SAN DIEGO CA
200 AM PDT TUE JUL 25 2017

NOTE: "FAIR" INDICATES FEW OR NO CLOUDS BELOW 12,000 FEET WITH NO
SIGNIFICANT WEATHER AND/OR OBSTRUCTIONS TO VISIBILITY.

CAZ042-043-060-061-PZZ750-775-251000-

GREATER SAN DIEGO AREA

CITY           SKY/WX    TMP DP  RH WIND       PRES   REMARKS
SAN DIEGO AP   MOCLDY    70  63  78 CALM      29.96F
NATIONAL CITY    N/A     70  65  84 CALM      29.96S
CHULA VISTA      N/A     69  65  89 CALM      29.87S
IMPERIAL BEACH CLOUDY    69  63  81 W6        29.95F
BROWN FIELD    MOCLDY    67  64  90 W3        29.95F
MIRAMAR MCAS   MOCLDY    72  62  71 CALM      29.95F
MONTGOMERY FLD MOCLDY    70  63  78 SW3       29.95F
GILLESPIE FLD  MOCLDY    68  63  83 NW5       29.95F

$$

NORTH SAN DIEGO COUNTY

CITY           SKY/WX    TMP DP  RH WIND       PRES   REMARKS
CAMP PENDLETON CLOUDY    61 N/A N/A CALM      29.94F
OCEANSIDE AP   CLOUDY    72  66  81 CALM      29.93F
OCEANSIDE HBR    N/A     71  66  84 CALM      29.96F
VISTA            N/A     69  64  83 CALM      29.92F
CARLSBAD       CLOUDY    69  65  86 CALM      29.94F
DEL MAR          N/A     68  65  89 CALM      29.96F
LA JOLLA SCRIP   N/A     68  65  90 SW1       29.93F
FALLBROOK        N/A     68  68  98 CALM      29.96S
ESCONDIDO        N/A     68  64  87 CALM      29.95F
SAN MARCOS       N/A     67  63  85 CALM      29.95F
POWAY            N/A     68  62  82 CALM      29.95F

$$

EAST SAN DIEGO COUNTY

CITY           SKY/WX    TMP DP  RH WIND       PRES   REMARKS
RAMONA         MOCLDY    65  63  93 NW5       29.97F
SANTEE LAKES     N/A     68  63  84 CALM      29.93F
LA MESA          N/A     67  63  88 CALM      29.88S
JAMUL            N/A     65  62  91 CALM      29.94S
DESCANSO N       N/A     63  60  91 CALM      29.82F
CAMPO            N/A     65  63  93 CALM      29.97F

$$

ORANGE COUNTY AND THE LOS ANGELES BASIN

CITY           SKY/WX    TMP DP  RH WIND       PRES   REMARKS
JOHN WAYNE AP  CLOUDY    69  64  84 W5        29.94S
LAKE FOREST FR   N/A     67  61  81 CALM      29.83S
HUNTINGTON BCH   N/A     68  64  87 CALM      29.96S
LOS ALAMITOS   CLOUDY    69  64  84 CALM      29.94S
FULLERTON      CLOUDY    70  65  84 SW3       29.94S
LONG BEACH     CLOUDY    70  63  78 NW5       29.94F
L.A. AP        MOCLDY    68  64  87 W6        29.95S
L.A. DOWNTOWN  PTCLDY    69  63  81 CALM      29.94F

$$

THE INLAND EMPIRE

CITY           SKY/WX    TMP DP  RH WIND       PRES   REMARKS
CORONA         MOCLDY    68  64  87 VRB3      29.95S
CHINO          MOCLDY    69  64  84 NW6       29.96S
ONTARIO        MOCLDY    69  61  75 W12       29.95S
SAN BERNARDINO FAIR      71  61  71 CALM      29.97S
RIVERSIDE AP   MOCLDY    69  64  84 W3        29.95S
MORENO VALLEY    N/A     68  65  92 CALM      28.06F
MARCH ARB      PTCLDY    66  56  70 S3        29.97S
HORSETHIEF CYN   N/A     69  60  74 CALM      29.93F
PERRIS           N/A     67  56  68 S2        29.96R
HEMET EAST       N/A     66  57  73 CALM      29.96S
FRENCH VALLEY  FAIR      66  61  82 S5        29.98S
TEMECULA         N/A     68  64  88 S1        30.03S

$$

SAN BERNARDINO AND RIVERSIDE COUNTY MOUNTAINS

CITY           SKY/WX    TMP DP  RH WIND       PRES   REMARKS
BIG BEAR AP    PTCLDY    55  54  94 CALM      30.23S
ANGELUS OAKS     N/A     60  51  72 CALM      29.78R
PINE COVE        N/A     64  53  68 CALM      29.83F

$$

SOUTHERN DESERT INCLUDING THE COACHELLA VALLEY

CITY           SKY/WX    TMP DP  RH WIND       PRES   REMARKS
PALM SPRINGS   PTCLDY    87  60  40 NW9       29.84S
THOUSAND PALMS   N/A     86  59  40 NW12      29.79S
PALM DESERT      N/A     85  62  45 CALM        N/A
THERMAL        PTCLDY    88  60  38 NW8       29.77R
BLYTHE         PTCLDY    88  72  58 S3        29.82S
IMPERIAL AP    PTCLDY    86  70  58 SE7       29.77S
EL CENTRO NAS  PTCLDY    85  68  56 VRB3      29.79F
YUMA AZ        PTCLDY    89  58  34 SE8       29.81R
MEXICALI       PTCLDY    81  70  69 SE7       29.81R

$$

UPPER DESERT

CITY           SKY/WX    TMP DP  RH WIND       PRES   REMARKS
VICTORVILLE AP PTCLDY    73  48  40 CALM      29.98S
HESPERIA         N/A     71  52  51 W6        29.93S
PALMDALE       PTCLDY    79  25  13 SW5       29.95S
LANCASTER      PTCLDY    74  47  38 W17       29.95S
EDWARDS AFB    MOCLDY    76  43  31 SW15      29.92S
DAGGETT        PTCLDY    80  68  66 W5        29.90S
29 PALMS N     MOCLDY    80  69  69 CALM      29.97F
NEEDLES        MOCLDY    90  69  50 E5        29.85F

$$

REGIONAL REPORTS

CITY           SKY/WX    TMP DP  RH WIND       PRES   REMARKS
SANTA BARBARA  CLOUDY    63  62  97 S3        29.95R
SANDBERG       PTCLDY    66  50  56 S13G21    30.09S
LAS VEGAS NV   CLOUDY    85  66  53 S6        29.90S
PHOENIX AZ     LGT RAIN  83  74  74 CALM      29.89F
TIJUANA        MOCLDY    68  64  88 NW5       29.98
ENSENADA NW      N/A     68  32  26 CALM      29.92S

$$

OFFSHORE ISLANDS

CITY           SKY/WX    TMP DP  RH WIND       PRES   REMARKS
CATALINA ARPT  CLOUDY    62  62 100 CALM      29.98S
SAN NICOLAS IS CLOUDY    60 N/A N/A W5        29.95F

$$

MARINE AND OFFSHORE BUOY REPORTS

STATION/POSITION SKY/WX   TEMP    WIND        PRES    VSBY  SWELL
                          AIR SEA DIR/SP/G                  HT/PER/DIR
                          (F)     (DEG/KT/KT) (MB)    (MI)  (FT/S/D)
TANNER BANKS               62 64  270/  6/  8 1014.1          3/290/11
S CLEMENTE BASIN              71  250/  6/  8 1014.2S         3/210/13
SAN NICOLAS IS.               67                N/A           3/280/11
SO. S. ROSA ISLA           61 64  300/  2/  4 1014.2R         5/320/10
W. S. BARBARA CH           60 60  210/  4/  4 1013.9R         3/270/ 8
M. S. BARBARA CH           61 66  240/  4/  6 1015.0R         2/250/ 8
S. MONICA BASIN               71  220/  4/  8 1014.0R         3/210/ 9
S PEDRO CHANNEL               69                N/A           2/170/11
CMP PENDLETON NS              76                N/A           2/210/14
OCEANSIDE OFFSHR              74                N/A           2/190/13
TORREY PINES OTR              75                N/A           2/200/14
SAN DIEGO BAY                 78              1014.4F
POINT LOMA SOUTH              70                N/A           2/200/13

$$




USA.gov is the U.S. government's official web portal to all federal, state and local government web resources and services.